This demonstration page uses our WeatherBlox Daily Observations layout. Learn more.

Hourly Observations for October 22, 2016

Temp ( °F °C ) Dew Point ( °F °C ) Humidity (%) Winds ( mph kmh ) Pressure ( in mb ) Visibility ( mi km ) Precip ( " mm )
12:15 am 00:15 Clear 40 4.6 32 -0.1 72 72 Calm 30.12 1020 10 16.09344 0 0
12:35 am 00:35 Clear 40 4.4 31 -0.3 72 72 Calm 30.09 1019 10 16.09344 0 0
12:55 am 00:55 Clear 40 4.2 32 0.1 75 75 Calm 30.09 1019 10 16.09344 0 0
1:15 am 01:15 Clear 40 4.5 31 -0.3 71 71 SW 5 7 30.09 1019 10 16.09344 0 0
1:35 am 01:35 Clear 42 5.5 32 0 68 68 SW 3 6 30.09 1019 10 16.09344 0 0
1:55 am 01:55 Clear 45 7.1 32 0 61 61 SW 3 6 30.06 1018 10 16.09344 0 0
2:15 am 02:15 Clear 46 7.6 32 0 59 59 Calm 30.06 1018 10 16.09344 0 0
2:35 am 02:35 Clear 41 5.1 31 -0.4 68 68 Calm 30.09 1019 10 16.09344 0 0
2:55 am 02:55 Clear 43 5.9 32 0 66 66 Calm 30.09 1019 10 16.09344 0 0
3:15 am 03:15 Clear 42 5.8 32 0 67 67 W 3 6 30.09 1019 10 16.09344 0 0
3:35 am 03:35 Clear 44 6.8 32 -0.2 61 61 W 3 6 30.06 1018 10 16.09344 0 0
3:55 am 03:55 Clear 44 6.8 31 -0.7 59 59 Calm 30.06 1018 10 16.09344 0 0
4:15 am 04:15 Clear 42 5.7 31 -0.4 65 65 Calm 30.09 1019 10 16.09344 0 0
4:35 am 04:35 Clear 40 4.2 31 -0.6 71 71 Calm 30.09 1019 10 16.09344 0 0
4:55 am 04:55 Clear 39 3.7 31 -0.4 75 75 Calm 30.09 1019 10 16.09344 0 0
5:15 am 05:15 Clear 38 3.2 31 -0.3 78 78 N 5 7 30.09 1019 10 16.09344 0 0
5:35 am 05:35 Clear 37 3 31 -0.5 78 78 N 3 6 30.09 1019 10 16.09344 0 0
5:55 am 05:55 Clear 39 3.7 31 -0.3 75 75 NNE 3 6 30.09 1019 10 16.09344 0 0
6:15 am 06:15 Clear 35 1.5 29 -1.5 81 81 W 3 6 30.12 1020 10 16.09344 0 0
6:35 am 06:35 Clear 38 3.5 31 -0.5 75 75 Calm 30.09 1019 10 16.09344 0 0
6:55 am 06:55 Clear 37 2.8 30 -0.9 77 77 Calm 30.12 1020 10 16.09344 0 0
7:15 am 07:15 Clear 39 4 32 -0.1 75 75 Calm 30.09 1019 10 16.09344 0 0
7:35 am 07:35 Clear 39 3.7 32 -0.1 76 76 SW 7 11 30.09 1019 10 16.09344 0 0
7:55 am 07:55 Clear 39 3.8 31 -0.5 74 74 SW 5 7 30.09 1019 10 16.09344 0 0
8:15 am 08:15 Sunny 39 4 31 -0.5 73 73 Calm 30.09 1019 10 16.09344 0 0
8:35 am 08:35 Sunny 42 5.4 31 -0.4 67 67 SSW 3 6 30.09 1019 10 16.09344 0 0
8:55 am 08:55 Sunny 43 6.2 33 0.8 69 69 Calm 30.06 1018 10 16.09344 0 0
9:15 am 09:15 Sunny 46 7.8 37 2.8 71 71 SSE 3 6 30.06 1018 10 16.09344 0 0
9:35 am 09:35 Sunny 53 11.6 35 1.4 50 50 SSE 3 6 30.03 1017 10 16.09344 0 0
9:55 am 09:55 Sunny 56 13.3 37 2.8 49 49 ESE 5 7 29.97 1015 10 16.09344 0 0
10:15 am 10:15 Sunny 60 15.6 34 0.9 37 37 SE 8 13 29.97 1015 10 16.09344 0 0
10:35 am 10:35 Sunny 64 17.5 33 0.8 33 33 SE 8 13 29.94 1014 10 16.09344 0 0
10:55 am 10:55 Sunny 67 19.6 32 -0.2 27 27 SE 10 17 29.91 1013 10 16.09344 0 0
11:15 am 11:15 Sunny 70 21 31 -0.8 23 23 SE 16 26 29.91 1013 10 16.09344 0 0
11:35 am 11:35 Sunny 71 21.5 30 -1 22 22 SSE 14 22 29.88 1012 10 16.09344 0 0
11:55 am 11:55 Sunny 72 22.2 30 -1.3 21 21 SSE 16 26 29.88 1012 10 16.09344 0 0
12:15 pm 12:15 Sunny 73 22.9 30 -1.3 20 20 SE 17 28 29.85 1011 10 16.09344 0 0
12:35 pm 12:35 Sunny 74 23.5 30 -1.3 19 19 SE 16 26 29.85 1011 10 16.09344 0 0
12:55 pm 12:55 Sunny 74 23.5 30 -1.1 20 20 SSE 17 28 29.85 1011 10 16.09344 0 0
1:15 pm 13:15 Sunny 76 24.2 31 -0.6 19 19 S 14 22 29.83 1010 10 16.09344 0 0
1:35 pm 13:35 Sunny 75 24.1 29 -1.4 18 18 S 15 24 29.83 1010 10 16.09344 0 0
1:55 pm 13:55 Sunny 77 24.8 29 -1.5 17 17 SSE 20 31 29.8 1009 10 16.09344 0 0
2:15 pm 14:15 Sunny 77 25 30 -1.1 18 18 S 15 24 29.8 1009 10 16.09344 0 0
2:35 pm 14:35 Sunny 76 24.7 30 -0.9 18 18 S 17 28 29.8 1009 10 16.09344 0 0
2:55 pm 14:55 Sunny 77 24.8 31 -0.7 19 19 S 23 37 29.77 1008 10 16.09344 0 0
3:15 pm 15:15 Sunny 76 24.7 31 -0.5 19 19 S 20 31 29.77 1008 10 16.09344 0 0
3:35 pm 15:35 Sunny 76 24.7 32 0 20 20 S 22 35 29.77 1008 10 16.09344 0 0
3:55 pm 15:55 Sunny 77 25 33 0.3 20 20 S 18 30 29.77 1008 10 16.09344 0 0
4:15 pm 16:15 Sunny 77 25.2 32 0 19 19 S 20 31 29.74 1007 10 16.09344 0 0
4:35 pm 16:35 Sunny 77 25.2 33 0.3 19 19 S 16 26 29.74 1007 10 16.09344 0 0
4:55 pm 16:55 Sunny 77 25 33 0.6 20 20 S 17 28 29.74 1007 10 16.09344 0 0
5:15 pm 17:15 Sunny 77 24.9 33 0.8 21 21 S 15 24 29.74 1007 10 16.09344 0 0
5:35 pm 17:35 Sunny 76 24.7 34 1.2 21 21 SSE 10 17 29.74 1007 10 16.09344 0 0
5:55 pm 17:55 Sunny 76 24.3 34 1.3 22 22 SSE 13 20 29.74 1007 10 16.09344 0 0
6:15 pm 18:15 Sunny 74 23.6 35 1.5 23 23 SSE 12 19 29.74 1007 10 16.09344 0 0
6:35 pm 18:35 Sunny 70 20.9 35 1.7 28 28 SSE 9 15 29.77 1008 10 16.09344 0 0
6:55 pm 18:55 Clear 66 18.9 35 1.6 32 32 SSE 9 15 29.77 1008 10 16.09344 0 0
7:15 pm 19:15 Clear 64 17.7 35 1.7 34 34 SSE 9 15 29.8 1009 10 16.09344 0 0
7:35 pm 19:35 Clear 61 16.2 35 1.7 38 38 SE 8 13 29.8 1009 10 16.09344 0 0
7:55 pm 19:55 Clear 58 14.6 35 1.7 42 42 SE 7 11 29.8 1009 10 16.09344 0 0
8:15 pm 20:15 Clear 58 14.6 36 2.1 43 43 SE 9 15 29.8 1009 10 16.09344 0 0
8:35 pm 20:35 Clear 58 14.6 36 2.3 44 44 SSE 7 11 29.8 1009 10 16.09344 0 0
8:55 pm 20:55 Clear 57 13.9 36 2.4 46 46 SSE 9 15 29.83 1010 10 16.09344 0 0
9:15 pm 21:15 Clear 57 13.7 37 3 49 49 SSE 9 15 29.83 1010 10 16.09344 0 0
9:35 pm 21:35 Clear 59 14.9 38 3.6 47 47 S 8 13 29.8 1009 10 16.09344 0 0
9:55 pm 21:55 Clear 60 15.3 39 4 47 47 S 8 13 29.8 1009 10 16.09344 0 0
10:15 pm 22:15 Clear 59 15 40 4.2 49 49 S 8 13 29.8 1009 10 16.09344 0 0
10:35 pm 22:35 Clear 59 15 40 4.5 50 50 S 9 15 29.83 1010 10 16.09344 0 0
10:55 pm 22:55 Clear 59 15 40 4.6 50 50 S 10 17 29.83 1010 10 16.09344 0 0
11:15 pm 23:15 Clear 58 14.7 41 4.9 52 52 S 8 13 29.85 1011 10 16.09344 0 0
11:35 pm 23:35 Clear 59 15.1 41 5 51 51 S 9 15 29.83 1010 10 16.09344 0 0
11:55 pm 23:55 Clear 58 14.7 41 5.1 53 53 SSW 12 19 29.85 1011 10 16.09344 0 0

Powered by AerisWeather